{"data":{"norad_id":1512,"epoch":"2026-09-20T02:43:28.036416Z","epoch_age_seconds":44654,"freshness":"FRESH","line1":"1 01512U 65065E   26263.11351894  .00000049  00000+0  81190-4 0  9997","line2":"2 01512  90.0070 212.6153 0069301 343.7234  27.3106 13.33598779972701","mean_motion":13.33598779,"eccentricity":0.0069301,"inclination_deg":90.007,"raan_deg":212.6153,"arg_perigee_deg":343.7234,"mean_anomaly_deg":27.3106,"bstar":8.119e-5,"rev_number":97270,"period_min":107.97850318068,"perigee_km":1081.165170911,"apogee_km":1185.2740759833,"semimajor_km":7511.3566234472,"source":"CELESTRAK","updated_at":"2026-09-20T09:00:47.875330Z"}}